| time (UTC) | temp F | wind direction | speed knots | gust knots | rain 1hr in | rain 24hr in | rain mn in | humidity % | barometer mb |
| 20260506123016 | 62 | 159 | 0.9 | 2.6 | 0.00 | 0.00 | 0.00 | 84 | 1009.8 |
| 20260506122516 | 61 | 80 | 1.7 | 3.5 | 0.00 | 0.00 | 0.00 | 83 | 1009.5 |
| 20260506122016 | 61 | 349 | 0.9 | 4.3 | 0.00 | 0.00 | 0.00 | 85 | 1009.8 |
| 20260506121518 | 61 | 95 | 1.7 | 2.6 | 0.00 | 0.00 | 0.00 | 86 | 1009.8 |
| 20260506121016 | 60 | 40 | 1.7 | 2.6 | 0.00 | 0.00 | 0.00 | 87 | 1009.8 |
| 20260506120515 | 60 | 180 | 1.7 | 2.6 | 0.00 | 0.00 | 0.00 | 88 | 1009.8 |
| 20260506120016 | 60 | 12 | 1.7 | 2.6 | 0.00 | 0.00 | 0.00 | 88 | 1009.8 |
| 20260506115518 | 59 | 61 | 0.0 | 1.7 | 0.00 | 0.00 | 0.00 | 90 | 1010.2 |
| 20260506115016 | 59 | 95 | 0.0 | 4.3 | 0.00 | 0.00 | 0.00 | 91 | 1010.2 |
| 20260506114515 | 59 | 323 | 1.7 | 2.6 | 0.00 | 0.00 | 0.00 | 92 | 1009.8 |
| 20260506114014 | 58 | 142 | 1.7 | 1.7 | 0.00 | 0.00 | 0.00 | 93 | 1009.8 |
| 20260506113518 | 58 | 156 | 1.7 | 2.6 | 0.00 | 0.00 | 0.00 | 94 | 1009.5 |
| 20260506113016 | 57 | 0 | 0.9 | 2.6 | 0.00 | 0.00 | 0.00 | 96 | 1009.5 |
| 20260506112517 | 57 | 187 | 0.9 | 3.5 | 0.00 | 0.00 | 0.00 | 97 | 1009.5 |
| 20260506112015 | 56 | 181 | 0.0 | 1.7 | 0.00 | 0.00 | 0.00 | 97 | 1009.8 |
| 20260506111517 | 56 | 294 | 0.0 | 2.6 | 0.00 | 0.00 | 0.00 | 98 | 1009.8 |
| 20260506111016 | 56 | 144 | 0.0 | 1.7 | 0.00 | 0.00 | 0.00 | 99 | 1009.8 |
| 20260506110517 | 55 | 93 | 0.0 | 1.7 | 0.00 | 0.00 | 0.00 | 99 | 1010.2 |
| 20260506110017 | 55 | 171 | 0.9 | 1.7 | 0.00 | 0.00 | 0.00 | 99 | 1009.8 |
| 20260506105517 | 55 | 316 | 1.7 | 2.6 | 0.00 | 0.00 | 0.00 | 99 | 1009.8 |
| 20260506105019 | 54 | 35 | 0.0 | 1.7 | 0.00 | 0.00 | 0.00 | 99 | 1009.8 |
| 20260506104515 | 54 | 130 | 0.0 | 1.7 | 0.00 | 0.00 | 0.00 | 99 | 1009.8 |
| 20260506104016 | 53 | 209 | 1.7 | 1.7 | 0.00 | 0.00 | 0.00 | 99 | 1009.8 |
| 20260506103517 | 53 | 166 | 0.0 | 1.7 | 0.00 | 0.00 | 0.00 | 99 | 1009.8 |
| 20260506103015 | 53 | 0 | 0.0 | 1.7 | 0.00 | 0.00 | 0.00 | 99 | 1009.8 |
| 20260506102515 | 52 | 117 | 0.0 | 1.7 | 0.00 | 0.00 | 0.00 | 98 | 1009.8 |
| 20260506102016 | 52 | 135 | 1.7 | 1.7 | 0.00 | 0.00 | 0.00 | 98 | 1009.5 |
| 20260506101516 | 52 | 36 | 0.0 | 1.7 | 0.00 | 0.00 | 0.00 | 98 | 1009.5 |
| 20260506101013 | 52 | 333 | 0.0 | 2.6 | 0.00 | 0.00 | 0.00 | 98 | 1009.8 |
| 20260506100516 | 52 | 41 | 0.9 | 1.7 | 0.00 | 0.00 | 0.00 | 98 | 1009.8 |
| 20260506100016 | 52 | 191 | 0.0 | 1.7 | 0.00 | 0.00 | 0.00 | 98 | 1009.8 |
| 20260506095516 | 52 | 49 | 0.9 | 1.7 | 0.00 | 0.00 | 0.00 | 98 | 1009.8 |
| 20260506095016 | 52 | 216 | 0.0 | 1.7 | 0.00 | 0.00 | 0.00 | 98 | 1009.5 |
| 20260506094517 | 52 | 89 | 0.0 | 1.7 | 0.00 | 0.00 | 0.00 | 97 | 1009.5 |
| 20260506094013 | 52 | 59 | 0.0 | 1.7 | 0.00 | 0.00 | 0.00 | 97 | 1009.5 |
| 20260506093515 | 52 | 168 | 0.0 | 1.7 | 0.00 | 0.00 | 0.00 | 97 | 1009.5 |
| 20260506093014 | 53 | 147 | 1.7 | 1.7 | 0.00 | 0.00 | 0.00 | 97 | 1009.5 |
| 20260506092515 | 53 | 253 | 0.9 | 1.7 | 0.00 | 0.00 | 0.00 | 97 | 1009.5 |
| 20260506092018 | 53 | 101 | 0.9 | 1.7 | 0.00 | 0.00 | 0.00 | 97 | 1009.5 |
| 20260506091516 | 53 | 217 | 0.0 | 1.7 | 0.00 | 0.00 | 0.00 | 96 | 1009.5 |
| 20260506091018 | 53 | 153 | 0.9 | 2.6 | 0.00 | 0.00 | 0.00 | 96 | 1009.5 |
| 20260506090518 | 53 | 166 | 0.0 | 1.7 | 0.00 | 0.00 | 0.00 | 96 | 1009.8 |
| 20260506090015 | 53 | 25 | 0.0 | 1.7 | 0.00 | 0.00 | 0.00 | 96 | 1009.8 |
| 20260506085517 | 53 | 171 | 1.7 | 1.7 | 0.00 | 0.00 | 0.00 | 96 | 1009.8 |
| 20260506085016 | 53 | 108 | 0.9 | 2.6 | 0.00 | 0.00 | 0.00 | 96 | 1009.8 |
| 20260506084517 | 53 | 158 | 1.7 | 2.6 | 0.00 | 0.00 | 0.00 | 96 | 1009.8 |
| 20260506084015 | 53 | 103 | 0.0 | 1.7 | 0.00 | 0.00 | 0.00 | 95 | 1009.8 |
| 20260506083517 | 53 | 273 | 0.0 | 1.7 | 0.00 | 0.00 | 0.00 | 95 | 1009.8 |
| 20260506083018 | 54 | 138 | 1.7 | 2.6 | 0.00 | 0.00 | 0.00 | 95 | 1009.8 |
| 20260506082515 | 54 | 286 | 0.9 | 1.7 | 0.00 | 0.00 | 0.00 | 95 | 1009.8 |
| 20260506082018 | 54 | 158 | 0.9 | 1.7 | 0.00 | 0.00 | 0.00 | 95 | 1009.8 |
| 20260506081515 | 54 | 225 | 0.0 | 1.7 | 0.00 | 0.00 | 0.00 | 94 | 1009.8 |
| 20260506081015 | 54 | 129 | 0.9 | 1.7 | 0.00 | 0.00 | 0.00 | 94 | 1009.8 |
| 20260506080515 | 54 | 158 | 0.0 | 1.7 | 0.00 | 0.00 | 0.00 | 94 | 1009.8 |
| 20260506073522 | 55 | 123 | 0.9 | 1.7 | 0.00 | 0.00 | 0.00 | 92 | 1010.2 |
| 20260506073015 | 56 | 241 | 0.0 | 1.7 | 0.00 | 0.00 | 0.00 | 91 | 1009.8 |
| 20260506072516 | 56 | 113 | 0.0 | 2.6 | 0.00 | 0.00 | 0.00 | 91 | 1009.8 |
| 20260506072015 | 56 | 22 | 0.0 | 2.6 | 0.00 | 0.00 | 0.00 | 90 | 1010.2 |
| 20260506071517 | 56 | 141 | 0.9 | 2.6 | 0.00 | 0.00 | 0.00 | 90 | 1009.8 |
| 20260506071015 | 56 | 87 | 1.7 | 2.6 | 0.00 | 0.00 | 0.00 | 90 | 1009.8 |
| 20260506070522 | 57 | 118 | 0.0 | 1.7 | 0.00 | 0.00 | 0.00 | 90 | 1010.2 |
| 20260506062516 | 57 | 261 | 0.0 | 2.6 | 0.00 | 0.00 | 0.00 | 89 | 1009.8 |
| 20260506062016 | 57 | 121 | 0.0 | 2.6 | 0.00 | 0.00 | 0.00 | 88 | 1010.2 |
| 20260506061516 | 57 | 184 | 0.0 | 1.7 | 0.00 | 0.00 | 0.00 | 87 | 1010.2 |
| 20260506061015 | 57 | 170 | 0.9 | 1.7 | 0.00 | 0.00 | 0.00 | 87 | 1009.8 |
| 20260506060515 | 58 | 151 | 0.0 | 2.6 | 0.00 | 0.00 | 0.00 | 87 | 1009.8 |
| 20260506051018 | 59 | 176 | 1.7 | 3.5 | 0.00 | 0.00 | 0.00 | 83 | 1010.5 |
| 20260506050515 | 60 | 229 | 2.6 | 3.5 | 0.00 | 0.00 | 0.00 | 83 | 1010.2 |
| 20260506045015 | 60 | 176 | 0.0 | 3.5 | 0.00 | 0.00 | 0.00 | 81 | 1010.2 |
| 20260506044513 | 60 | 122 | 0.0 | 2.6 | 0.00 | 0.00 | 0.00 | 81 | 1010.2 |
| 20260506044014 | 60 | 131 | 0.9 | 4.3 | 0.00 | 0.00 | 0.00 | 80 | 1010.2 |
| 20260506043515 | 60 | 308 | 1.7 | 2.6 | 0.00 | 0.00 | 0.00 | 80 | 1010.2 |
| 20260506043014 | 60 | 169 | 1.7 | 4.3 | 0.00 | 0.00 | 0.00 | 79 | 1010.2 |
| 20260506042514 | 60 | 63 | 1.7 | 4.3 | 0.00 | 0.00 | 0.00 | 79 | 1010.2 |
| 20260506042016 | 60 | 168 | 0.9 | 2.6 | 0.00 | 0.00 | 0.00 | 79 | 1010.5 |
| 20260506041515 | 61 | 221 | 1.7 | 3.5 | 0.00 | 0.00 | 0.00 | 78 | 1010.5 |
| 20260506041015 | 61 | 114 | 1.7 | 3.5 | 0.00 | 0.00 | 0.00 | 77 | 1009.8 |
| 20260506040514 | 61 | 66 | 2.6 | 3.5 | 0.00 | 0.00 | 0.00 | 77 | 1010.2 |
| 20260506040014 | 61 | 84 | 0.0 | 3.5 | 0.00 | 0.00 | 0.00 | 77 | 1010.5 |
| 20260506035513 | 61 | 43 | 3.5 | 4.3 | 0.00 | 0.00 | 0.00 | 76 | 1010.2 |
| 20260506035014 | 61 | 224 | 1.7 | 4.3 | 0.00 | 0.00 | 0.00 | 76 | 1010.2 |
| 20260506034514 | 61 | 93 | 0.9 | 4.3 | 0.00 | 0.00 | 0.00 | 76 | 1010.2 |
| 20260506034015 | 62 | 221 | 0.0 | 2.6 | 0.00 | 0.00 | 0.00 | 75 | 1010.2 |
| 20260506033514 | 62 | 175 | 0.0 | 3.5 | 0.00 | 0.00 | 0.00 | 75 | 1010.5 |
| 20260506033013 | 62 | 164 | 0.9 | 1.7 | 0.00 | 0.00 | 0.00 | 74 | 1010.2 |
| 20260506032515 | 62 | 25 | 0.0 | 0.9 | 0.00 | 0.00 | 0.00 | 74 | 1010.2 |
| 20260506032014 | 62 | 89 | 0.0 | 1.7 | 0.00 | 0.00 | 0.00 | 74 | 1010.2 |
| 20260506031513 | 62 | 164 | 0.0 | 0.9 | 0.00 | 0.00 | 0.00 | 73 | 1009.8 |
| 20260506031014 | 62 | 241 | 0.0 | 0.0 | 0.00 | 0.00 | 0.00 | 73 | 1010.2 |
| 20260506030517 | 62 | 184 | 1.7 | 2.6 | 0.00 | 0.00 | 0.00 | 73 | 1010.2 |
| 20260506030016 | 63 | 180 | 0.0 | 1.7 | 0.00 | 0.00 | 0.00 | 72 | 1010.2 |
| 20260506025515 | 63 | 154 | 0.0 | 1.7 | 0.00 | 0.00 | 0.00 | 72 | 1010.2 |
| 20260506025014 | 63 | 22 | 0.0 | 1.7 | 0.00 | 0.00 | 0.00 | 72 | 1010.2 |
| 20260506024514 | 63 | 13 | 1.7 | 1.7 | 0.00 | 0.00 | 0.00 | 71 | 1010.5 |
| 20260506024014 | 63 | 106 | 0.0 | 0.9 | 0.00 | 0.00 | 0.00 | 71 | 1010.2 |
| 20260506023515 | 64 | 333 | 0.0 | 0.9 | 0.00 | 0.00 | 0.00 | 70 | 1010.2 |
| 20260506023014 | 64 | 175 | 0.0 | 1.7 | 0.00 | 0.00 | 0.00 | 70 | 1010.2 |
| 20260506022516 | 64 | 5 | 0.9 | 1.7 | 0.00 | 0.00 | 0.00 | 70 | 1009.8 |
| 20260506022015 | 64 | 17 | 0.0 | 1.7 | 0.00 | 0.00 | 0.00 | 70 | 1010.2 |
| 20260506021517 | 64 | 10 | 0.0 | 0.9 | 0.00 | 0.00 | 0.00 | 70 | 1010.2 |
| 20260506021018 | 64 | 11 | 0.9 | 0.9 | 0.00 | 0.00 | 0.00 | 70 | 1009.8 |
| 20260506020516 | 64 | 6 | 0.0 | 2.6 | 0.00 | 0.00 | 0.00 | 70 | 1009.8 |
| 20260506020014 | 64 | 214 | 0.0 | 0.9 | 0.00 | 0.00 | 0.00 | 69 | 1009.8 |
| 20260506015515 | 64 | 219 | 0.0 | 2.6 | 0.00 | 0.00 | 0.00 | 69 | 1009.8 |
| 20260506015014 | 64 | 168 | 0.0 | 1.7 | 0.00 | 0.00 | 0.00 | 69 | 1009.8 |
| 20260506014517 | 64 | 167 | 0.9 | 2.6 | 0.00 | 0.00 | 0.00 | 69 | 1009.8 |
| 20260506014015 | 64 | 315 | 0.0 | 1.7 | 0.00 | 0.00 | 0.00 | 69 | 1009.8 |
| 20260506013518 | 64 | 186 | 0.0 | 0.9 | 0.00 | 0.00 | 0.00 | 68 | 1009.8 |
| 20260506013014 | 64 | 183 | 0.9 | 1.7 | 0.00 | 0.00 | 0.00 | 68 | 1009.8 |
| 20260506012515 | 64 | 173 | 0.0 | 1.7 | 0.00 | 0.00 | 0.00 | 68 | 1009.5 |
| 20260506012015 | 64 | 77 | 0.0 | 2.6 | 0.00 | 0.00 | 0.00 | 68 | 1009.8 |
| 20260506011515 | 65 | 169 | 0.0 | 1.7 | 0.00 | 0.00 | 0.00 | 67 | 1009.5 |
| 20260506011017 | 65 | 321 | 0.0 | 2.6 | 0.00 | 0.00 | 0.00 | 67 | 1009.5 |
| 20260506010518 | 65 | 154 | 0.9 | 1.7 | 0.00 | 0.00 | 0.00 | 67 | 1009.5 |
| 20260506010014 | 65 | 185 | 0.0 | 3.5 | 0.00 | 0.00 | 0.00 | 67 | 1009.5 |
| 20260506005518 | 65 | 15 | 0.0 | 1.7 | 0.00 | 0.00 | 0.00 | 66 | 1009.1 |
| 20260506005015 | 65 | 205 | 0.0 | 2.6 | 0.00 | 0.00 | 0.00 | 66 | 1009.1 |
| 20260506004518 | 65 | 49 | 0.0 | 0.9 | 0.00 | 0.00 | 0.00 | 66 | 1009.1 |
| 20260506004014 | 65 | 127 | 0.9 | 2.6 | 0.00 | 0.00 | 0.00 | 66 | 1009.5 |
| 20260506003519 | 66 | 351 | 0.9 | 1.7 | 0.00 | 0.00 | 0.00 | 65 | 1009.1 |
| 20260506003014 | 66 | 340 | 0.0 | 0.9 | 0.00 | 0.00 | 0.00 | 65 | 1009.1 |
| 20260506002514 | 66 | 186 | 0.0 | 0.0 | 0.00 | 0.00 | 0.00 | 64 | 1009.1 |
| 20260506002017 | 66 | 23 | 0.0 | 1.7 | 0.00 | 0.00 | 0.00 | 64 | 1008.8 |
| 20260506001028 | 67 | 29 | 1.7 | 2.6 | 0.00 | 0.00 | 0.00 | 63 | 1008.8 |
| 20260506000515 | 67 | 358 | 0.0 | 1.7 | 0.00 | 0.00 | 0.00 | 63 | 1008.8 |
| 20260506000015 | 67 | 13 | 0.0 | 0.9 | 0.00 | 0.00 | 0.00 | 63 | 1008.8 |
| 20260505235514 | 67 | 343 | 0.0 | 2.6 | 0.00 | 0.00 | 0.00 | 62 | 1008.8 |
| 20260505235016 | 68 | 15 | 0.0 | 2.6 | 0.00 | 0.00 | 0.00 | 62 | 1008.8 |
| 20260505234513 | 68 | 10 | 0.0 | 1.7 | 0.00 | 0.00 | 0.00 | 61 | 1008.5 |
| 20260505234014 | 68 | 353 | 0.0 | 3.5 | 0.00 | 0.00 | 0.00 | 61 | 1008.5 |
| 20260505233516 | 69 | 154 | 0.0 | 2.6 | 0.00 | 0.00 | 0.00 | 60 | 1008.5 |
| 20260505233014 | 69 | 6 | 1.7 | 2.6 | 0.00 | 0.00 | 0.00 | 60 | 1008.1 |
| 20260505232514 | 69 | 32 | 0.0 | 2.6 | 0.00 | 0.00 | 0.00 | 60 | 1008.1 |
| 20260505232017 | 69 | 39 | 1.7 | 2.6 | 0.00 | 0.00 | 0.00 | 59 | 1008.1 |
| 20260505231517 | 69 | 48 | 0.0 | 1.7 | 0.00 | 0.00 | 0.00 | 59 | 1008.1 |
| 20260505231014 | 70 | 24 | 0.0 | 2.6 | 0.00 | 0.00 | 0.00 | 58 | 1008.1 |
| 20260505230517 | 70 | 180 | 0.9 | 2.6 | 0.00 | 0.00 | 0.00 | 58 | 1007.8 |
| 20260505230015 | 70 | 72 | 0.0 | 2.6 | 0.00 | 0.00 | 0.00 | 58 | 1007.8 |
| 20260505225514 | 70 | 183 | 2.6 | 3.5 | 0.00 | 0.00 | 0.00 | 57 | 1007.8 |
| 20260505225014 | 70 | 353 | 1.7 | 1.7 | 0.00 | 0.00 | 0.00 | 57 | 1007.8 |
| 20260505224515 | 70 | 8 | 0.9 | 2.6 | 0.00 | 0.00 | 0.00 | 57 | 1007.8 |
| 20260505224014 | 71 | 139 | 1.7 | 2.6 | 0.00 | 0.00 | 0.00 | 57 | 1007.5 |
| 20260505223515 | 71 | 0 | 0.0 | 3.5 | 0.00 | 0.00 | 0.00 | 57 | 1007.5 |
| 20260505223019 | 71 | 169 | 1.7 | 3.5 | 0.00 | 0.00 | 0.00 | 57 | 1008.1 |
| 20260505222513 | 71 | 340 | 0.0 | 3.5 | 0.00 | 0.00 | 0.00 | 56 | 1007.8 |
| 20260505221539 | 72 | 354 | 1.7 | 3.5 | 0.00 | 0.00 | 0.00 | 55 | 1008.1 |
| 20260505221014 | 72 | 4 | 0.0 | 2.6 | 0.00 | 0.00 | 0.00 | 55 | 1007.8 |
| 20260505220516 | 72 | 11 | 0.0 | 3.5 | 0.00 | 0.00 | 0.00 | 55 | 1007.8 |
| 20260505220015 | 73 | 340 | 1.7 | 3.5 | 0.00 | 0.00 | 0.00 | 53 | 1007.8 |
| 20260505215516 | 74 | 50 | 0.9 | 2.6 | 0.00 | 0.00 | 0.00 | 52 | 1007.8 |
| 20260505215018 | 74 | 180 | 0.0 | 3.5 | 0.00 | 0.00 | 0.00 | 53 | 1007.5 |
| 20260505214516 | 74 | 303 | 1.7 | 3.5 | 0.00 | 0.00 | 0.00 | 52 | 1007.8 |
| 20260505214015 | 75 | 124 | 1.7 | 3.5 | 0.00 | 0.00 | 0.00 | 51 | 1007.8 |
| 20260505213519 | 76 | 357 | 1.7 | 3.5 | 0.00 | 0.00 | 0.00 | 50 | 1007.5 |
| 20260505213017 | 76 | 250 | 1.7 | 2.6 | 0.00 | 0.00 | 0.00 | 51 | 1007.8 |
| 20260505212518 | 75 | 50 | 0.0 | 2.6 | 0.00 | 0.00 | 0.00 | 51 | 1007.8 |
| 20260505212017 | 75 | 153 | 1.7 | 3.5 | 0.00 | 0.00 | 0.00 | 52 | 1007.8 |
| 20260505211517 | 76 | 12 | 0.9 | 3.5 | 0.00 | 0.00 | 0.00 | 51 | 1007.8 |
| 20260505211016 | 76 | 299 | 1.7 | 3.5 | 0.00 | 0.00 | 0.00 | 51 | 1007.5 |
| 20260505210518 | 75 | 202 | 0.0 | 1.7 | 0.00 | 0.00 | 0.00 | 52 | 1007.5 |
| 20260505210015 | 75 | 329 | 1.7 | 1.7 | 0.00 | 0.00 | 0.00 | 52 | 1007.5 |
| 20260505205516 | 75 | 177 | 1.7 | 3.5 | 0.00 | 0.00 | 0.00 | 52 | 1007.5 |
| 20260505205016 | 75 | 20 | 1.7 | 3.5 | 0.00 | 0.00 | 0.00 | 52 | 1007.5 |
| 20260505204517 | 75 | 107 | 2.6 | 4.3 | 0.00 | 0.00 | 0.00 | 52 | 1007.5 |
| 20260505204016 | 75 | 6 | 1.7 | 2.6 | 0.00 | 0.00 | 0.00 | 52 | 1007.8 |
| 20260505203514 | 75 | 167 | 1.7 | 2.6 | 0.00 | 0.00 | 0.00 | 52 | 1007.5 |
| 20260505203015 | 75 | 358 | 1.7 | 2.6 | 0.00 | 0.00 | 0.00 | 52 | 1007.8 |
| 20260505202515 | 76 | 141 | 1.7 | 2.6 | 0.00 | 0.00 | 0.00 | 52 | 1007.8 |
| 20260505202016 | 75 | 154 | 0.0 | 2.6 | 0.00 | 0.00 | 0.00 | 52 | 1007.8 |
| 20260505201517 | 76 | 342 | 1.7 | 4.3 | 0.00 | 0.00 | 0.00 | 50 | 1007.8 |
| 20260505201016 | 76 | 350 | 1.7 | 2.6 | 0.00 | 0.00 | 0.00 | 50 | 1008.1 |
| 20260505200516 | 76 | 144 | 0.0 | 3.5 | 0.00 | 0.00 | 0.00 | 51 | 1008.1 |
| 20260505200015 | 76 | 7 | 0.9 | 4.3 | 0.00 | 0.00 | 0.00 | 50 | 1008.1 |
| 20260505195515 | 75 | 44 | 0.9 | 2.6 | 0.00 | 0.00 | 0.00 | 51 | 1008.1 |
| 20260505195017 | 76 | 210 | 2.6 | 2.6 | 0.00 | 0.00 | 0.00 | 51 | 1008.1 |
| 20260505194518 | 76 | 14 | 2.6 | 2.6 | 0.00 | 0.00 | 0.00 | 51 | 1008.1 |
| 20260505194016 | 75 | 33 | 0.0 | 2.6 | 0.00 | 0.00 | 0.00 | 52 | 1008.5 |
| 20260505193516 | 76 | 216 | 0.9 | 3.5 | 0.00 | 0.00 | 0.00 | 51 | 1008.5 |
| 20260505193017 | 76 | 348 | 1.7 | 3.5 | 0.00 | 0.00 | 0.00 | 51 | 1008.5 |
| 20260505192516 | 76 | 179 | 0.9 | 4.3 | 0.00 | 0.00 | 0.00 | 52 | 1008.5 |
| 20260505192015 | 76 | 198 | 0.0 | 2.6 | 0.00 | 0.00 | 0.00 | 51 | 1008.5 |
| 20260505191517 | 75 | 299 | 0.0 | 2.6 | 0.00 | 0.00 | 0.00 | 52 | 1008.5 |
| 20260505191020 | 76 | 353 | 2.6 | 4.3 | 0.00 | 0.00 | 0.00 | 51 | 1008.8 |
| 20260505190516 | 76 | 194 | 0.0 | 2.6 | 0.00 | 0.00 | 0.00 | 50 | 1008.8 |
| 20260505190015 | 77 | 216 | 0.9 | 3.5 | 0.00 | 0.00 | 0.00 | 50 | 1008.8 |
| 20260505185515 | 77 | 78 | 0.9 | 3.5 | 0.00 | 0.00 | 0.00 | 49 | 1008.5 |
| 20260505185017 | 76 | 338 | 1.7 | 4.3 | 0.00 | 0.00 | 0.00 | 50 | 1009.1 |
| 20260505184518 | 77 | 277 | 0.9 | 4.3 | 0.00 | 0.00 | 0.00 | 49 | 1008.8 |
| 20260505184015 | 78 | 27 | 1.7 | 3.5 | 0.00 | 0.00 | 0.00 | 48 | 1009.1 |
| 20260505183516 | 78 | 6 | 2.6 | 5.2 | 0.00 | 0.00 | 0.00 | 47 | 1009.1 |
| 20260505183017 | 78 | 219 | 0.0 | 3.5 | 0.00 | 0.00 | 0.00 | 49 | 1009.1 |
| 20260505182516 | 78 | 147 | 0.9 | 3.5 | 0.00 | 0.00 | 0.00 | 48 | 1008.8 |
| 20260505182020 | 78 | 57 | 0.0 | 3.5 | 0.00 | 0.00 | 0.00 | 48 | 1009.1 |
| 20260505181513 | 79 | 198 | 0.9 | 3.5 | 0.00 | 0.00 | 0.00 | 47 | 1009.1 |
| 20260505181017 | 80 | 1 | 2.6 | 3.5 | 0.00 | 0.00 | 0.00 | 47 | 1009.1 |
| 20260505180516 | 80 | 351 | 1.7 | 2.6 | 0.00 | 0.00 | 0.00 | 46 | 1009.1 |
| 20260505180016 | 79 | 28 | 2.6 | 2.6 | 0.00 | 0.00 | 0.00 | 46 | 1009.1 |
| 20260505175516 | 79 | 317 | 0.9 | 2.6 | 0.00 | 0.00 | 0.00 | 46 | 1009.1 |
| 20260505175018 | 79 | 359 | 0.0 | 3.5 | 0.00 | 0.00 | 0.00 | 45 | 1009.1 |
| 20260505174517 | 79 | 41 | 0.9 | 4.3 | 0.00 | 0.00 | 0.00 | 45 | 1009.1 |
| 20260505174015 | 79 | 347 | 0.9 | 3.5 | 0.00 | 0.00 | 0.00 | 44 | 1009.1 |
| 20260505173515 | 79 | 216 | 1.7 | 3.5 | 0.00 | 0.00 | 0.00 | 46 | 1009.1 |
| 20260505173015 | 78 | 11 | 0.0 | 4.3 | 0.00 | 0.00 | 0.00 | 46 | 1009.1 |
| 20260505172518 | 78 | 179 | 2.6 | 2.6 | 0.00 | 0.00 | 0.00 | 47 | 1009.1 |
| 20260505172016 | 78 | 194 | 1.7 | 5.2 | 0.00 | 0.00 | 0.00 | 46 | 1009.5 |
| 20260505171517 | 77 | 4 | 2.6 | 2.6 | 0.00 | 0.00 | 0.00 | 48 | 1009.1 |
| 20260505171018 | 77 | 357 | 0.9 | 3.5 | 0.00 | 0.00 | 0.00 | 46 | 1009.1 |
| 20260505170516 | 77 | 127 | 0.0 | 2.6 | 0.00 | 0.00 | 0.00 | 48 | 1009.5 |
| 20260505170017 | 77 | 321 | 3.5 | 3.5 | 0.00 | 0.00 | 0.00 | 48 | 1009.5 |
| 20260505165518 | 76 | 202 | 1.7 | 5.2 | 0.00 | 0.00 | 0.00 | 48 | 1009.8 |
| 20260505165015 | 76 | 87 | 1.7 | 5.2 | 0.00 | 0.00 | 0.00 | 48 | 1009.8 |
| 20260505164516 | 76 | 0 | 0.0 | 3.5 | 0.00 | 0.00 | 0.00 | 48 | 1009.8 |
| 20260505164016 | 77 | 197 | 1.7 | 3.5 | 0.00 | 0.00 | 0.00 | 48 | 1009.8 |
| 20260505163516 | 76 | 4 | 2.6 | 2.6 | 0.00 | 0.00 | 0.00 | 49 | 1009.5 |
| 20260505163016 | 76 | 329 | 0.0 | 2.6 | 0.00 | 0.00 | 0.00 | 48 | 1009.8 |
| 20260505162514 | 76 | 275 | 0.0 | 2.6 | 0.00 | 0.00 | 0.00 | 49 | 1009.8 |
| 20260505162016 | 75 | 62 | 1.7 | 1.7 | 0.00 | 0.00 | 0.00 | 50 | 1009.8 |
| 20260505161515 | 74 | 343 | 0.0 | 2.6 | 0.00 | 0.00 | 0.00 | 51 | 1010.2 |
| 20260505161017 | 74 | 301 | 0.0 | 2.6 | 0.00 | 0.00 | 0.00 | 51 | 1010.5 |
| 20260505160517 | 74 | 343 | 2.6 | 2.6 | 0.00 | 0.00 | 0.00 | 51 | 1010.5 |
| 20260505153016 | 72 | 318 | 0.0 | 5.2 | 0.00 | 0.00 | 0.00 | 53 | 1010.8 |
| 20260505152515 | 71 | 290 | 0.0 | 2.6 | 0.00 | 0.00 | 0.00 | 54 | 1010.5 |
| 20260505152016 | 72 | 226 | 0.0 | 4.3 | 0.00 | 0.00 | 0.00 | 54 | 1010.5 |
| 20260505151516 | 72 | 315 | 0.9 | 3.5 | 0.00 | 0.00 | 0.00 | 54 | 1010.8 |
| 20260505151016 | 71 | 122 | 0.0 | 2.6 | 0.00 | 0.00 | 0.00 | 54 | 1010.8 |
| 20260505150519 | 71 | 357 | 1.7 | 1.7 | 0.00 | 0.00 | 0.00 | 55 | 1010.8 |
| 20260505140516 | 66 | 224 | 0.9 | 4.3 | 0.00 | 0.00 | 0.00 | 65 | 1011.2 |
| 20260505125016 | 60 | 330 | 1.7 | 1.7 | 0.00 | 0.00 | 0.00 | 80 | 1011.2 |
| 20260505124515 | 59 | 171 | 2.6 | 2.6 | 0.00 | 0.00 | 0.00 | 82 | 1010.8 |
| 20260505124016 | 59 | 172 | 0.9 | 2.6 | 0.00 | 0.00 | 0.00 | 83 | 1011.2 |
| 20260505123518 | 58 | 341 | 0.9 | 2.6 | 0.00 | 0.00 | 0.00 | 86 | 1010.5 |